Back to catalog

FREGAT DEB

AliveUNKNOWN
NORAD 45650·DEBRIS·🇷🇺 Russia

Launched Jul 18, 2011 from Baikonur Cosmodrome

Loading…

Next Passes (next 24 hours)

TLE

FreshSource: Space-Track

Epoch: Sep 14, 2026, 08:06 UTC

1 45650U 11037AS  26257.33810308  .00003039  00000-0  58074-3 0  9992
2 45650  51.4586  29.7246 1669555 336.1161  17.0135 11.77056125265688

Track FREGAT DEB in real time with AllMySat

Download on the App Store